Current Version              Previous Version:    01  02  03  04  05  06  07  08  09  10  11  12  13  14  15  16  17  18  19  20  21  22  23  24  25  26  27  28  29  30  
   31  32  33  34  35  36  37  38  39  40  41  42  43  44  45  46  47  48  49  50  51  52  53  54  55  56  57  58  59  60  

[Printable]
802
ASUS44 KEWX 241810
RWRTX
SOUTH TEXAS REGIONAL WEATHER ROUNDUP
NATIONAL WEATHER SERVICE AUSTIN/SAN ANTONIO TX
100 PM CDT THU JUL 24 2014

NOTE: "FAIR" INDICATED FEW OR NO CLOUDS BELOW 12,000 FEET WITH NO
SIGNIFICANT WEATHER AND/OR OBSTRUCTIONS TO VISIBILITY.

* - THESE STATIONS ARE NOT NWS OR FAA STATIONS...AND ARE NOT SUBJECT
    TO NWS AND FAA QUALITY CONTROL.

TXZ171-172-183>190-241900-
TEXAS HILL COUNTRY AND EDWARDS PLATEAU

CITY           SKY/WX    TMP DP  RH WIND       PRES   REMARKS
JUNCTION       SUNNY     91  62  37 SE9       30.08F HX  91
6HR MIN TEMP:  74; 6HR MAX TEMP:  91;

*LLANO         MOSUNNY   90  66  45 CALM      30.08F HX  92
BURNET         PTSUNNY   88  69  53 SW8       30.08F HX  92
6HR MIN TEMP:  76; 6HR MAX TEMP:  89; 6HR PCP: TRACE;

*HORSESHOE BAY MOSUNNY   90  67  46 CALM      30.05F HX  93
6HR MIN TEMP:  75; 6HR MAX TEMP:  90;

*KERRVILLE     CLOUDY    89  67  48 CALM      30.08F HX  92
6HR MIN TEMP:  74; 6HR MAX TEMP:  91;

*FREDERICKSBRG PTSUNNY   89  62  40 E5        30.08F
6HR MIN TEMP:  73; 6HR MAX TEMP:  89;

*ROCKSPRINGS   MOSUNNY   88  66  48 CALM      30.13F HX  90
*BOERNE STAGE  PTSUNNY   86  64  48 S5        30.08F
*CASTROVILLE   PTSUNNY   86  68  55 E6        30.06F
HONDO          CLOUDY    85  71  63 SE9       30.07F HX  90
6HR MIN TEMP:  73; 6HR MAX TEMP:  86;

*UVALDE        CLOUDY    92  72  52 SE7       30.05F HX  99
6HR MIN TEMP:  75; 6HR MAX TEMP:  92;

DEL RIO        SUNNY     93  69  45 VRB6      30.01F HX  98
6HR MIN TEMP:  80; 6HR MAX TEMP:  94;

LAUGHLIN AFB   PTSUNNY   92  70  49 S7        30.02F HX  97
6HR MIN TEMP:  78; 6HR MAX TEMP:  92;

CARRIZO SPRGS  MOSUNNY   93  68  43 SE10      30.00F HX  97
$$

TXZ173-191>194-202-209-217>225-228-241900-
CENTRAL AND SOUTH CENTRAL TEXAS

CITY           SKY/WX    TMP DP  RH WIND       PRES   REMARKS
GEORGETOWN     PTSUNNY   77  75  94 W7        30.06F
AUSTIN/BERGSTM MOSUNNY   88  71  57 CALM      30.03F HX  94
6HR MIN TEMP:  75; 6HR MAX TEMP:  89; 6HR PCP:  0.07;

AUSTIN/MABRY   MOSUNNY   88  73  61 VRB3      30.04F HX  95
6HR MIN TEMP:  74; 6HR MAX TEMP:  88; 6HR PCP:  0.09;

*AUSTIN/EXEC   MOSUNNY   88  72  58 CALM      30.04F HX  94
*LAGO VISTA    PTSUNNY   84  70  61 CALM      30.08S
6HR MIN TEMP:  75; 6HR MAX TEMP:  87;

SAN MARCOS     NOT AVBL
NEW BRAUNFELS  PTSUNNY   86  71  60 NE3       30.02F HX  91
6HR MIN TEMP:  76; 6HR MAX TEMP:  86; 6HR PCP: TRACE;

RANDOLPH AFB   CLOUDY    83  73  69 NW6       30.03F
6HR MIN TEMP:  76; 6HR MAX TEMP:  83; 6HR PCP: TRACE;

PT SAN ANTONIO MOSUNNY   86  70  59 N5        30.03F HX  91
6HR MIN TEMP:  76; 6HR MAX TEMP:  86;

SAN ANTONIO    PTSUNNY   85  72  65 E9        30.05F HX  91
6HR MIN TEMP:  79; 6HR MAX TEMP:  85; 6HR PCP: TRACE;

STINSON FIELD  CLOUDY    84  70  62 E7        30.02F
6HR MIN TEMP:  76; 6HR MAX TEMP:  86; 6HR PCP: TRACE;

*PLEASANTON    CLOUDY    88  71  57 NE9       30.03F HX  93
6HR MIN TEMP:  74; 6HR MAX TEMP:  88;

*LA GRANGE     SUNNY     86  76  71 CALM      30.01F HX  95
6HR MIN TEMP:  74; 6HR MAX TEMP:  86; 6HR PCP:  1.19;

*GIDDINGS      MOSUNNY   87  71  58 CALM      30.06F HX  92
6HR MIN TEMP:  74; 6HR MAX TEMP:  87; 6HR PCP:  0.03;

*GONZALES      MOSUNNY   84  76  76 CALM      30.01F HX  92
6HR MIN TEMP:  76; 6HR MAX TEMP:  84; 6HR PCP:  0.06;

$$

TXZ163>164-176>182-195>201-210>213-226-227-235-241900-
SOUTHEAST TEXAS

CITY           SKY/WX    TMP DP  RH WIND       PRES   REMARKS
COLLEGE STN    SUNNY     88  71  57 VRB6      30.02F HX  94
6HR MIN TEMP:  75; 6HR MAX TEMP:  88;

*BRYAN         SUNNY    N/A N/A N/A N5        30.02F
*CALDWELL      MOSUNNY   88  72  58 CALM      30.05F HX  94
*CROCKETT      SUNNY     88  72  58 N3        30.06F HX  94
*BRENHAM       MOSUNNY   86  71  59 CALM      30.02F HX  91
6HR MIN TEMP:  75; 6HR MAX TEMP:  87;

HUNTSVILLE     MOSUNNY   87  70  56 CALM      30.03F HX  92
6HR MIN TEMP:  72; 6HR MAX TEMP:  87;

CONROE         SUNNY     87  71  58 CALM      30.02F HX  93
6HR MIN TEMP:  72; 6HR MAX TEMP:  87;

HOUSTON BUSH   MOSUNNY   90  73  57 N6        30.01F HX  98
6HR MIN TEMP:  75; 6HR MAX TEMP:  90; 6HR PCP: TRACE;

HOUSTON HOBBY  MOSUNNY   88  73  61 NW7       30.00F HX  95
6HR MIN TEMP:  76; 6HR MAX TEMP:  88;

*HOUSTON SW AP PTSUNNY   88  72  58 W9        30.01S HX  94
6HR MIN TEMP:  73; 6HR MAX TEMP:  89;

PEARLAND       MOSUNNY   88  73  61 NW3       30.02S HX  95
6HR MIN TEMP:  76; 6HR MAX TEMP:  89;

HOUSTON HOOKS  MOSUNNY   87  76  69 N9        30.01F HX  97
6HR MIN TEMP:  76; 6HR MAX TEMP:  88;

ELLINGTON FLD  PTSUNNY   90  75  62 N3        30.02F HAZE    HX 100
SUGAR LAND     SUNNY     89  73  59 NW8       30.01S HX  97
6HR MIN TEMP:  76; 6HR MAX TEMP:  89; 6HR PCP: TRACE;

*HOUSTON EXEC  MOSUNNY   86  75  70 NW8       30.02F HX  95
*CLEVELAND MUN SUNNY     89  72  56 CALM      30.02S HX  95
6HR MIN TEMP:  71; 6HR MAX TEMP:  89;

*WHARTON       PTSUNNY   86  73  64 CALM      30.03F HX  93
6HR MIN TEMP:  76; 6HR MAX TEMP:  87;

$$

TXZ214>216-236>238-241900-
THE UPPER TEXAS COAST

CITY           SKY/WX    TMP DP  RH WIND       PRES   REMARKS
*ORANGE        MOSUNNY   86  73  65 NW5       30.03R HX  92
6HR MIN TEMP:  72; 6HR MAX TEMP:  86;

PORT ARTHUR    MOSUNNY   87  73  62 NW6       30.01S HX  94
6HR MIN TEMP:  74; 6HR MAX TEMP:  88;

GALVESTON      MOSUNNY   88  74  63 NE6       30.03R HX  96
6HR MIN TEMP:  80; 6HR MAX TEMP:  88;

ANGLETON       PTSUNNY   82  74  76 NW9       30.03R
6HR MIN TEMP:  73; 6HR MAX TEMP:  88;

*BAY CITY      PTSUNNY   88  74  62 N10       30.02F HX  96
PALACIOS       RAIN      81  74  79 SE14      30.02S
6HR MIN TEMP:  78; 6HR MAX TEMP:  89; 6HR PCP:  0.02;

$$

TXZ229>234-239>247-241900-
TEXAS COASTAL BEND AND RIO GRANDE PLAINS

CITY           SKY/WX    TMP DP  RH WIND       PRES   REMARKS
VICTORIA       PTSUNNY   92  74  55 N8        30.01F HX 101
6HR MIN TEMP:  78; 6HR MAX TEMP:  92; 6HR PCP: TRACE;

*BEEVILLE      PTSUNNY   94  67  40 N5        30.00F HX  98
6HR MIN TEMP:  75; 6HR MAX TEMP:  94;

ROCKPORT       MOSUNNY   90  72  55 E8        30.00F HX  97
6HR MIN TEMP:  78; 6HR MAX TEMP:  92;

*PORT ARANSAS  PTSUNNY   87  76  69 SE10      30.01S HX  97
6HR MIN TEMP:  79; 6HR MAX TEMP:  89;

*PORT LAVACA   PTSUNNY   86  70  59 S8        30.01F HX  91
6HR MIN TEMP:  74; 6HR MAX TEMP:  88;

*INGLESIDE     MOSUNNY   93  71  48 SE5       30.00S HX 100
CORPUS CHRISTI PTSUNNY   94  71  47 VRB3      29.99F HX 101
6HR MIN TEMP:  75; 6HR MAX TEMP:  94;

CORPUS NAS     PTSUNNY   91  76  61 E10       30.00F HX 103
6HR MIN TEMP:  79; 6HR MAX TEMP:  92;

*ROBSTOWN      MOSUNNY   95  68  40 CALM      29.99F HX  99
6HR MIN TEMP:  76; 6HR MAX TEMP:  95;

ALICE          MOSUNNY   96  69  41 E13       29.99F HX 102
6HR MIN TEMP:  75; 6HR MAX TEMP:  96;

KINGSVILLE NAS PTSUNNY   93  72  50 VRB5      29.98F HX 101
6HR MIN TEMP:  75; 6HR MAX TEMP:  94;

COTULLA        MOSUNNY   93  66  40 E5        30.01F HX  96
6HR MIN TEMP:  76; 6HR MAX TEMP:  94;

*FAITH RANCH   MOSUNNY   93  68  43 SE6       30.02S HX  97
LAREDO         MOSUNNY   98  66  34 VRB6      30.01F HX 101
6HR MIN TEMP:  80; 6HR MAX TEMP:  97;

$$

TXZ248>255-241900-
DEEP SOUTH TEXAS

CITY           SKY/WX    TMP DP  RH WIND       PRES   REMARKS
BROWNSVILLE    MOSUNNY   95  70  44 S8        29.98F HX 101
6HR MIN TEMP:  76; 6HR MAX TEMP:  95;

PORT ISABEL    SUNNY     92  74  55 E17G23    29.98F HX 101
6HR MIN TEMP:  77; 6HR MAX TEMP:  93;

*SOUTH PADRE   SUNNY     88  77  70 SE10      30.00S HX 100
HARLINGEN      SUNNY     95  69  42 SE10      29.97F HX 100
6HR MIN TEMP:  74; 6HR MAX TEMP:  96;

*HEBBRONVILLE  SUNNY     93  64  38 E10       30.01F HX  94
MCALLEN        SUNNY     96  67  38 VRB6      29.97F HX 100